#timestamp,LO_Frequency,Hit 
1499727615.4,286047013.8,N
1499727635.3,286047012.9,N
1499727655.1,286047012.9,N
1499727656.0,286047012.9,N
1499727675.8,286047013.0,N
1499727695.7,286047013.6,N
1499727715.5,286047013.4,N
1499727735.3,286047011.3,N
1499727755.2,286047013.6,N
1499727775.0,286047010.9,N
1499727775.9,286047010.9,N
1499727795.8,286047013.6,N
1499727815.6,286047013.8,N
1499727835.4,286047012.9,N
1499727855.3,286047013.4,N
1499727875.1,286047013.7,N
1499727895.8,286047013.2,N
1499727915.7,286047013.8,N
1499727935.5,286047010.9,N
1499727955.4,286047013.7,N
1499727975.2,286047013.9,N
1499727995.0,286047013.9,N
1499727995.9,286047013.9,N
1499728015.8,286047013.5,N
1499728035.6,286047014.0,N
1499728055.4,286047013.6,N
1499728075.3,286047011.0,N
1499728095.1,286047012.4,N
1499728115.9,286047011.6,N
1499728135.7,286047011.0,N
1499728155.5,286047010.9,N
1499728175.4,286047011.3,N
1499728195.2,286047011.6,N
1499728215.0,286047012.0,N
1499728215.9,286047012.0,N
1499728235.8,286047011.1,N
1499728255.6,286047011.2,N
1499728275.5,286047012.4,N
1499728295.3,286047012.0,N
1499728315.1,286047011.6,N
1499728335.9,286047012.2,N
1499728355.7,286047011.4,N
1499728375.6,286047011.8,N
1499728395.4,286047011.8,N
1499728415.2,286047011.0,N
1499728435.1,286047011.3,N
1499728436.0,286047011.3,N
1499728455.8,286047011.2,N
1499728475.6,286047012.1,N
1499728495.5,286047011.4,N
1499728515.3,286047011.2,N
1499728535.2,286047011.4,N
1499728555.9,286047011.5,N
1499728575.7,286047009.7,N
1499728595.6,286047012.1,N
1499728615.4,286047011.7,N
1499728635.2,286047012.0,N
1499728655.1,286047009.4,N
1499728656.0,286047009.4,N
1499728675.8,286047011.2,N
1499728695.6,286047012.0,N
1499728715.5,286047009.8,N
1499728735.3,286047012.2,N
1499728755.2,286047013.5,N
1499728775.9,286047011.6,N
1499728795.7,286047012.4,N
1499728815.6,286047009.8,N
1499728835.4,286047012.0,N
1499728855.2,286047009.5,N
1499728875.1,286047010.1,N
1499728876.0,286047010.1,N
1499728895.8,286047010.0,N
1499728915.7,286047011.8,N
1499728935.5,286047012.4,N
1499728955.3,286047010.2,N
1499728975.2,286047010.2,N
1499728995.0,286047008.0,N
1499728995.9,286047008.0,N
1499729015.7,286047009.8,N
1499729035.6,286047009.8,N
1499729055.4,286047009.5,N
1499729075.3,286047009.7,N
1499729095.1,286047009.5,N
1499729096.0,286047009.5,N
1499729115.8,286047010.4,N
1499729135.7,286047010.1,N
1499729155.5,286047009.9,N
1499729175.3,286047009.5,N
1499729195.2,286047010.3,N
1499729215.0,286047010.6,N
1499729215.9,286047010.6,N
1499729235.8,286047007.7,N
1499729255.6,286047010.5,N
1499729275.4,286047009.6,N
1499729295.3,286047010.1,N
1499729315.1,286047009.5,N
1499729335.8,286047010.7,N
1499729355.7,286047010.5,N
1499729375.5,286047009.7,N
1499729395.3,286047009.3,N
1499729415.2,286047010.2,N
1499729435.0,286047009.5,N
1499729435.9,286047009.5,N
1499729455.8,286047010.7,N
1499729475.6,286047010.4,N
1499729495.4,286047009.9,N
1499729515.3,286047009.5,N
1499729535.1,286047010.0,N
1499729555.8,286047010.6,N
1499729575.7,286047009.6,N
1499729595.5,286047012.0,N
1499729615.4,286047009.8,N
1499729635.2,286047012.0,N
1499729655.0,286047012.3,N
1499729655.9,286047012.3,N
1499729675.8,286047012.1,N
1499729695.6,286047009.3,N
1499729715.4,286047012.3,N
1499729735.3,286047009.7,N
1499729755.1,286047012.1,N
1499729775.9,286047012.2,N
1499729795.7,286047011.3,N
1499729815.5,286047013.9,N
1499729835.4,286047011.0,N
1499729855.2,286047011.8,N
1499729875.0,286047011.8,N
1499729875.9,286047011.8,N
1499729895.8,286047010.9,N
1499729915.6,286047011.7,N
1499729935.5,286047013.6,N
1499729955.3,286047013.2,N
1499729975.1,286047013.8,N
1499729995.9,286047015.6,N
1499730015.7,286047015.0,N
1499730035.5,286047011.3,N
1499730055.4,286047013.3,N
1499730075.2,286047013.9,N
1499730095.1,286047013.6,N
1499730096.0,286047013.6,N
1499730115.8,286047014.9,N
1499730135.6,286047013.9,N
1499730155.5,286047013.7,N
1499730175.3,286047013.8,N
1499730195.1,286047013.4,N
1499730215.9,286047012.8,N
1499730235.7,286047013.5,N
1499730255.6,286047013.8,N
1499730275.4,286047013.3,N
1499730295.2,286047013.9,N
1499730315.1,286047014.0,N
1499730316.0,286047014.0,N
1499730335.8,286047010.9,N
1499730355.6,286047013.8,N
1499730375.5,286047011.2,N
1499730395.3,286047011.2,N
1499730415.2,286047013.8,N
1499730435.9,286047013.4,N
1499730455.7,286047014.0,N
1499730475.6,286047011.4,N
1499730495.4,286047013.5,N
1499730515.2,286047010.9,N
1499730535.1,286047013.9,N
1499730536.0,286047013.9,N
1499730555.8,286047013.7,N
1499730575.7,286047013.3,N
1499730595.5,286047015.5,N
1499730615.3,286047015.2,N
1499730635.2,286047015.2,N
1499730655.9,286047014.9,N
1499730675.7,286047014.9,N
1499730695.6,286047015.6,N
1499730715.4,286047014.9,N
1499730735.2,286047013.7,N
1499730755.1,286047013.8,N
1499730756.0,286047013.8,N
1499730775.8,286047013.2,N
1499730795.7,286047013.3,N
1499730815.5,286047013.0,N
1499730835.3,286047013.2,N
1499730855.2,286047012.7,N
1499730875.0,286047012.6,N
1499730875.9,286047012.6,N
1499730895.7,286047015.6,N
1499730915.6,286047013.3,N
1499730935.4,286047012.7,N
1499730955.3,286047012.7,N
1499730975.1,286047013.0,N
1499730976.0,286047013.0,N
1499730995.8,286047012.8,N
1499731015.7,286047012.7,N
1499731035.5,286047012.9,N
1499731055.3,286047011.9,N
1499731075.2,286047013.0,N
1499731095.0,286047012.8,N
1499731095.9,286047012.8,N
1499731115.8,286047013.1,N
1499731135.6,286047015.3,N
1499731155.4,286047014.6,N
1499731175.3,286047015.3,N
1499731195.1,286047014.7,N
